DW1009 Weather Reports


Display with metric or nautical units.
time (UTC)temp
F
wind
direction
speed
MPH
gust
MPH
rain 1hr
in
rain 24hr
in
rain mn
in
humidity
%
barometer
mb
20260504235341 65 305 5.0 8.0 0.00 0.00 0.00 80 1012.9
20260504234411 65 215 4.0 9.0 0.00 0.00 0.00 78 1012.8
20260504233340 66 345 2.0 10.0 0.00 0.00 0.00 78 1012.6
20260504232341 66 343 3.0 9.0 0.00 0.00 0.00 77 1012.6
20260504231340 66 317 2.0 11.0 0.00 0.00 0.00 77 1012.6
20260504230411 67 355 5.0 10.0 0.00 0.00 0.00 76 1012.5
20260504224410 67 335 3.0 10.0 0.00 0.00 0.00 75 1013.1
20260504222411 66 294 4.0 12.0 0.00 0.00 0.00 78 1013.3
20260504221411 66 231 1.0 9.0 0.00 0.00 0.00 77 1013.5
20260504220340 66 253 4.0 9.0 0.00 0.00 0.00 78 1013.7
20260504215341 66 319 3.0 9.0 0.00 0.00 0.00 78 1013.7
20260504214340 66 232 4.0 11.0 0.00 0.00 0.00 79 1013.8
20260504212340 66 271 3.0 11.0 0.00 0.00 0.00 79 1014.0
20260504210340 66 236 3.0 10.0 0.00 0.00 0.00 77 1014.1
20260504205341 66 232 4.0 9.0 0.00 0.00 0.00 78 1014.0
20260504204340 66 236 7.0 7.0 0.00 0.00 0.00 78 1014.0
20260504203340 66 279 6.0 7.0 0.00 0.00 0.00 77 1014.0
20260504202411 66 233 3.0 7.0 0.00 0.00 0.00 77 1013.9
20260504201340 65 259 6.0 8.0 0.00 0.00 0.00 77 1014.0
20260504200410 65 227 8.0 9.0 0.00 0.00 0.00 77 1014.0
20260504194340 65 197 1.0 9.0 0.00 0.00 0.00 76 1014.0
20260504192340 64 247 2.0 7.0 0.00 0.00 0.00 78 1014.2
20260504191410 64 279 3.0 10.0 0.00 0.00 0.00 78 1014.1
20260504190341 65 203 2.0 11.0 0.00 0.00 0.00 77 1014.1
20260504185340 65 255 2.0 7.0 0.00 0.00 0.00 76 1014.1
20260504184410 65 261 4.0 10.0 0.00 0.00 0.00 75 1014.1
20260504183410 65 265 4.0 8.0 0.00 0.00 0.00 77 1014.1
20260504182410 64 170 2.0 8.0 0.00 0.00 0.00 78 1014.3
20260504181340 64 227 4.0 8.0 0.00 0.00 0.00 79 1014.3
20260504180340 63 261 6.0 8.0 0.00 0.00 0.00 79 1014.2
20260504174340 64 230 5.0 8.0 0.00 0.00 0.00 79 1014.3
20260504173410 64 210 3.0 6.0 0.00 0.00 0.00 79 1014.2
20260504172411 63 291 3.0 8.0 0.00 0.00 0.00 79 1014.1
20260504170340 63 251 7.0 7.0 0.00 0.00 0.00 79 1013.9
20260504150340 60 289 1.0 4.0 0.00 0.00 0.00 83 1013.3
20260504130409 59 328 6.0 6.0 0.00 0.00 0.00 83 1012.6
20260504110409 60 327 1.0 5.0 0.00 0.00 0.00 82 1012.6
20260504080339 60 25 1.0 4.0 0.00 0.00 0.00 83 1013.6
20260504070409 60 300 4.0 9.0 0.00 0.00 0.00 84 1013.8
20260504050409 60 257 0.0 4.0 0.00 0.00 0.00 81 1012.9
20260504045338 60 257 2.0 4.0 0.00 0.00 0.00 82 1012.9
20260504044338 60 295 1.0 6.0 0.00 0.00 0.00 82 1012.9
20260504043408 60 304 3.0 4.0 0.00 0.00 0.00 83 1012.9
20260504034408 61 317 0.0 8.0 0.00 0.00 0.00 85 1012.3
20260504033338 61 55 1.0 4.0 0.00 0.00 0.00 84 1012.4
20260504031338 61 313 1.0 6.0 0.00 0.00 0.00 82 1012.1
20260504030408 61 71 1.0 6.0 0.00 0.00 0.00 81 1012.0
20260504024408 62 344 3.0 7.0 0.00 0.00 0.00 80 1011.9
20260504023338 62 345 1.0 6.0 0.00 0.00 0.00 80 1011.9
20260504022408 62 302 2.0 5.0 0.00 0.00 0.00 80 1011.8
20260504021408 62 305 3.0 6.0 0.00 0.00 0.00 79 1011.4
20260504020408 62 265 2.0 9.0 0.00 0.00 0.00 80 1011.6
20260504015408 62 190 1.0 4.0 0.00 0.00 0.00 80 1011.6
20260504014408 62 249 1.0 6.0 0.00 0.00 0.00 80 1011.2
20260504013408 62 263 1.0 7.0 0.00 0.00 0.00 80 1011.4
20260504011408 63 199 1.0 7.0 0.00 0.00 0.00 80 1011.4
20260504010408 63 294 2.0 8.0 0.00 0.00 0.00 80 1011.4
20260504005408 63 286 1.0 7.0 0.00 0.00 0.00 80 1011.1
20260504004408 63 272 4.0 6.0 0.00 0.00 0.00 80 1011.0
20260504002407 63 229 2.0 7.0 0.00 0.00 0.00 79 1011.0
20260504001407 63 271 1.0 8.0 0.00 0.00 0.00 79 1011.1
20260504000409 63 334 3.0 10.0 0.00 0.00 0.00 80 1011.1